Showing default

GNOMES-5, 60574

Orbit data source: Space-Track

GNOMES-5, 60574 is a payload satellite owned by PlanetiQ (US) in SSO that was launched on Fri, 16 Aug 2024 UTC via an FALCON 9 launch vehicle from the Air Force Western Test Range (AFWTR). Payload-class satellites include a variety of spacecraft equipped with specific instruments for various scientific and technological missions. These include communications satellites like Starlink; space stations such as the ISS; scientific satellites like the Hubble; Earth observation satellites from companies like Planet Labs, Umbra, and HawkEye 360; GPS; miniature CubeSats for education and research; and military/defense satellites.

Loading next visibility...
Identifier
60574, 2024-149DL
Orbit
SSO
Country
Flag of USUS
Related business
Manufacturer
Blue Canyon
Mission
Operational Commercial Communications
Bus & Motor
XSAT, Unknown motor
Mass
~41 kg wet, ~41 kg dry
Launch date (UTC)
2024-08-16 (1 year ago)
Launch vehicle
FALCON 9
Launch site
Air Force Western Test Range (AFWTR)
Object type
Payload
Rocket body
Debris
Shape & HBR
Box + 2 Pan, 0.3 m
Radar Cross Section
0.162 m², Medium (>0.1 m² and < 1m²)

Expand to show TLE details & history
Last TLE update: 6 hours ago

TLE from 6 hours ago
0 GNOMES-5
1 60574U 24149DL  26035.46812045  .00005206  00000-0  42407-3 0  9991
2 60574  97.6924 114.9307 0003999 193.0372 167.0748 14.99928552 80253
Epoch: 2026-02-04T11:14Z
TLE epoch observation values (Epoch: 2026-02-04T11:14:05.606Z)
Latitude
-0.00012°
Longitude
171.77309°
Altitude
572.879 km
Speed
7.573 km/s
True Right ascension
07h 39m 43s
True Declination
0° 00' 00"
Sunlit
Object was in full shadow at epoch
Visualization orbit readout
Latitude
Unknown
Longitude
Unknown
Altitude
Unknown
Speed
Unknown
Apparent Right ascension
Unknown
Apparent Declination
Unknown
Sunlit
N/A
Visualization observer readout
Local Sidereal Time
18:43:37
Azimuth
Unknown
Elevation
Unknown
Doppler factor
Unknown
Orbital elements
Apogee altitude
566.898 km
Perigee altitude
561.346 km
Semi-major axis
6,942.259 km
Eccentricity
0.0004
Inclination
97.6924°
RAAN
114.9307°
Arg. of periapsis
193.0372°
True anomaly
167.08505°
Mean anomaly
167.0748°
Eccentric anomaly
167.07992°
Mean motion
3.75225 °/min
Orbital period
95.94 mins
BSTAR
0.00042407
Loading maneuver chart data...
Computing Atmospheric mass density...
Loading historical data...
Loading historical data...
Loading historical data...
Loading historical data...
Loading historical data...
Loading historical data...
Loading historical data...

Documentation

Showing up to 5 results
|